EW4483 Weather Reports


time (UTC)temp
C
wind
direction
speed
KPH
gust
KPH
rain 1hr
cm
rain 24hr
cm
rain mn
cm
humidity
%
barometer
mb
20190223173304 7 4 4.8 12.9 0.00 0.00 0.00 51 1021.3
20190223172804 7 17 3.2 8.0 0.00 0.00 0.00 51 1021.2
20190223172304 7 13 3.2 4.8 0.00 0.00 0.00 52 1021.1
20190223171804 7 18 3.2 8.0 0.00 0.00 0.00 52 1021.1
20190223171304 7 24 3.2 8.0 0.00 0.00 0.00 52 1021.0
20190223170804 7 21 4.8 8.0 0.00 0.00 0.00 51 1020.9
20190223170304 7 17 4.8 9.7 0.00 0.00 0.00 51 1021.0
20190223165804 7 14 3.2 8.0 0.00 0.00 0.00 51 1020.9
20190223165304 7 12 3.2 8.0 0.00 0.00 0.00 51 1020.9
20190223164304 7 12 3.2 8.0 0.00 0.00 0.00 51 1020.8
20190223163804 7 18 3.2 8.0 0.00 0.00 0.00 50 1020.7
20190223163304 8 19 3.2 4.8 0.00 0.00 0.00 50 1020.8
20190223162804 8 19 3.2 4.8 0.00 0.00 0.00 50 1020.7
20190223162304 8 21 4.8 8.0 0.00 0.00 0.00 49 1020.7
20190223161804 8 27 3.2 8.0 0.00 0.00 0.00 49 1020.6
20190223161305 8 24 3.2 8.0 0.00 0.00 0.00 50 1020.6
20190223160805 8 23 4.8 41.8 0.00 0.00 0.00 50 1020.6
20190223160304 8 24 3.2 4.8 0.00 0.00 0.00 50 1020.5
20190223155803 8 26 3.2 4.8 0.00 0.00 0.00 50 1020.5
20190223155304 8 35 3.2 4.8 0.00 0.00 0.00 50 1020.4
20190223154804 8 33 1.6 4.8 0.00 0.00 0.00 50 1020.3
20190223154304 8 16 1.6 8.0 0.00 0.00 0.00 50 1020.2
20190223153804 8 23 3.2 8.0 0.00 0.00 0.00 50 1020.1
20190223153304 8 13 1.6 4.8 0.00 0.00 0.00 50 1020.1
20190223152804 8 13 3.2 4.8 0.00 0.00 0.00 49 1020.0
20190223152305 8 14 3.2 4.8 0.00 0.00 0.00 50 1019.9
20190223151804 8 15 3.2 8.0 0.00 0.00 0.00 49 1019.9
20190223151304 8 18 4.8 8.0 0.00 0.00 0.00 49 1019.7
20190223150804 9 23 4.8 8.0 0.00 0.00 0.00 49 1019.6
20190223150305 9 15 6.4 11.3 0.00 0.00 0.00 49 1019.6
20190223145804 9 23 3.2 11.3 0.00 0.00 0.00 50 1019.5
20190223145304 9 28 3.2 4.8 0.00 0.00 0.00 50 1019.4
20190223144804 9 35 3.2 4.8 0.00 0.00 0.00 51 1019.4
20190223144306 9 35 1.6 4.8 0.00 0.00 0.00 51 1019.4
20190223143804 9 33 1.6 4.8 0.00 0.00 0.00 51 1019.3
20190223143304 9 33 1.6 4.8 0.00 0.00 0.00 51 1019.2
20190223142804 9 21 3.2 9.7 0.00 0.00 0.00 51 1019.1
20190223142304 9 23 4.8 8.0 0.00 0.00 0.00 51 1019.1
20190223141805 9 22 1.6 4.8 0.00 0.00 0.00 52 1019.0
20190223141305 9 18 4.8 8.0 0.00 0.00 0.00 52 1018.9
20190223140804 10 5 4.8 11.3 0.00 0.00 0.00 51 1018.8
20190223140305 10 22 3.2 11.3 0.00 0.00 0.00 51 1018.8
20190223135805 10 15 3.2 11.3 0.00 0.00 0.00 51 1018.8
20190223135303 10 26 3.2 8.0 0.00 0.00 0.00 50 1018.7
20190223134304 10 28 4.8 8.0 0.00 0.00 0.00 49 1018.7
20190223133304 10 18 4.8 9.7 0.00 0.00 0.00 47 1018.6
20190223130805 10 7 3.2 4.8 0.00 0.00 0.00 48 1018.3
20190223130305 10 5 3.2 8.0 0.00 0.00 0.00 47 1018.3
20190223124805 10 359 4.8 11.3 0.00 0.00 0.00 46 1018.0
20190223124305 10 6 4.8 11.3 0.00 0.00 0.00 45 1017.9
20190223123805 10 15 4.8 12.9 0.00 0.00 0.00 46 1017.8
20190223123304 10 23 4.8 12.9 0.00 0.00 0.00 46 1017.8
20190223122804 10 36 4.8 12.9 0.00 0.00 0.00 46 1017.7
20190223121804 10 19 1.6 4.8 0.00 0.00 0.00 45 1017.6
20190223120805 10 359 3.2 8.0 0.00 0.00 0.00 44 1017.5
20190223120303 10 359 4.8 8.0 0.00 0.00 0.00 43 1017.5
20190223115804 10 352 6.4 9.7 0.00 0.00 0.00 43 1017.4
20190223114804 10 355 4.8 11.3 0.00 0.00 0.00 43 1017.3
20190223114304 10 350 4.8 9.7 0.00 0.00 0.00 43 1017.3
20190223113804 10 355 4.8 8.0 0.00 0.00 0.00 43 1017.3
20190223113304 10 3 6.4 12.9 0.00 0.00 0.00 44 1017.2
20190223112805 10 355 8.0 12.9 0.00 0.00 0.00 43 1017.0
20190223112304 10 352 8.0 14.5 0.00 0.00 0.00 42 1016.9
20190223111804 10 354 9.7 14.5 0.00 0.00 0.00 42 1016.9
20190223111304 10 355 8.0 14.5 0.00 0.00 0.00 41 1016.7
20190223110804 10 353 8.0 14.5 0.00 0.00 0.00 41 1016.8
20190223110304 10 347 8.0 12.9 0.00 0.00 0.00 41 1016.7
20190223105804 10 354 6.4 14.5 0.00 0.00 0.00 42 1016.6
20190223105304 10 4 4.8 8.0 0.00 0.00 0.00 41 1016.4
20190223104804 10 19 3.2 4.8 0.00 0.00 0.00 40 1016.4
20190223104303 10 348 3.2 4.8 0.00 0.00 0.00 39 1016.3
20190223103804 10 340 8.0 14.5 0.00 0.00 0.00 39 1016.1
20190223103304 10 318 8.0 12.9 0.00 0.00 0.00 38 1016.0
20190223102804 11 336 8.0 16.1 0.00 0.00 0.00 37 1015.9
20190223102304 11 300 9.7 20.9 0.00 0.00 0.00 37 1015.9
20190223101804 11 302 8.0 19.3 0.00 0.00 0.00 37 1015.8
20190223100805 11 316 9.7 19.3 0.00 0.00 0.00 36 1015.5
20190223100303 11 314 11.3 19.3 0.00 0.00 0.00 35 1015.4
20190223095804 11 308 11.3 20.9 0.00 0.00 0.00 35 1015.3
20190223095304 11 305 16.1 24.1 0.00 0.00 0.00 34 1015.2
20190223094304 11 314 16.1 22.5 0.00 0.00 0.00 33 1015.1
20190223093304 11 317 17.7 24.1 0.00 0.00 0.00 33 1014.9
20190223092804 11 310 14.5 22.5 0.00 0.00 0.00 33 1014.9
20190223092305 12 301 16.1 25.7 0.00 0.00 0.00 33 1014.8
20190223091804 12 302 14.5 25.7 0.00 0.00 0.00 33 1014.7
20190223091304 12 294 14.5 24.1 0.00 0.00 0.00 33 1014.7
20190223090804 12 308 14.5 25.7 0.00 0.00 0.00 32 1014.5
20190223090304 12 307 16.1 24.1 0.00 0.00 0.00 32 1014.4
20190223085804 12 318 17.7 25.7 0.00 0.00 0.00 31 1014.2
20190223085304 12 307 19.3 29.0 0.00 0.00 0.00 31 1014.2
20190223083805 12 302 17.7 24.1 0.00 0.00 0.00 30 1013.7
20190223083304 12 296 19.3 27.4 0.00 0.00 0.00 31 1013.6
20190223082804 12 308 19.3 29.0 0.00 0.00 0.00 30 1013.4
20190223082304 13 306 12.9 24.1 0.00 0.00 0.00 30 1013.3
20190223081804 13 304 19.3 32.2 0.00 0.00 0.00 30 1013.2
20190223081304 13 310 16.1 24.1 0.00 0.00 0.00 30 1013.0
20190223080804 13 308 16.1 24.1 0.00 0.00 0.00 29 1012.8
20190223080304 13 299 19.3 27.4 0.00 0.00 0.00 29 1012.6
20190223075804 13 313 19.3 25.7 0.00 0.00 0.00 29 1012.5
20190223075304 13 309 20.9 27.4 0.00 0.00 0.00 28 1012.4
20190223074804 13 313 22.5 32.2 0.00 0.00 0.00 28 1012.3
20190223074304 13 315 17.7 27.4 0.00 0.00 0.00 28 1012.1
20190223073804 13 296 22.5 33.8 0.00 0.00 0.00 29 1012.0
20190223073304 13 297 20.9 29.0 0.00 0.00 0.00 28 1011.9
20190223072804 13 301 19.3 32.2 0.00 0.00 0.00 28 1011.7
20190223072304 13 295 20.9 32.2 0.00 0.00 0.00 29 1011.6
20190223071804 13 306 17.7 32.2 0.00 0.00 0.00 28 1011.4
20190223071304 13 301 19.3 32.2 0.00 0.00 0.00 29 1011.3
20190223070804 14 302 22.5 32.2 0.00 0.00 0.00 28 1011.2
20190223070304 14 299 20.9 32.2 0.00 0.00 0.00 28 1011.2
20190223065804 14 292 19.3 27.4 0.00 0.00 0.00 28 1011.0
20190223065304 14 303 20.9 33.8 0.00 0.00 0.00 27 1011.0
20190223064805 14 310 20.9 32.2 0.00 0.00 0.00 27 1010.8
20190223064304 14 298 25.7 38.6 0.00 0.00 0.00 27 1010.9
20190223063803 14 320 25.7 37.0 0.00 0.00 0.00 26 1010.7
20190223063304 15 302 20.9 41.8 0.00 0.00 0.00 27 1010.6
20190223062804 15 324 27.4 41.8 0.00 0.00 0.00 26 1010.5
20190223062304 15 319 27.4 40.2 0.00 0.00 0.00 26 1010.3
20190223061804 15 292 22.5 32.2 0.00 0.00 0.00 26 1010.2
20190223061303 16 324 19.3 32.2 0.00 0.00 0.00 26 1010.1
20190223060804 16 315 19.3 27.4 0.00 0.00 0.00 27 1010.0
20190223060304 16 328 19.3 33.8 0.00 0.00 0.00 26 1009.9
20190223055804 16 289 24.1 32.2 0.00 0.00 0.00 27 1009.9
20190223055304 16 290 22.5 32.2 0.00 0.00 0.00 27 1009.9
20190223054804 16 308 24.1 33.8 0.00 0.00 0.00 26 1009.9
20190223054304 16 285 22.5 35.4 0.00 0.00 0.00 26 1009.8
20190223053804 16 277 19.3 27.4 0.00 0.00 0.00 27 1009.6
20190223053304 16 298 24.1 35.4 0.00 0.00 0.00 27 1009.8
20190223052805 16 284 20.9 29.0 0.00 0.00 0.00 27 1009.6
20190223052304 16 301 20.9 35.4 0.00 0.00 0.00 27 1009.6
20190223051807 16 275 22.5 35.4 0.00 0.00 0.00 28 1009.5
20190223051304 16 313 20.9 29.0 0.00 0.00 0.00 29 1009.5
20190223050804 16 286 24.1 40.2 0.00 0.00 0.00 29 1009.5
20190223050304 16 256 27.4 33.8 0.00 0.00 0.00 29 1009.5
20190223045804 16 259 16.1 32.2 0.00 0.00 0.00 32 1009.5
20190223045304 16 299 14.5 27.4 0.00 0.00 0.00 31 1009.4
20190223044804 16 291 19.3 29.0 0.00 0.00 0.00 32 1009.5
20190223044303 16 289 17.7 24.1 0.00 0.00 0.00 31 1009.4
20190223043804 16 327 14.5 27.4 0.00 0.00 0.00 33 1009.5
20190223043304 16 270 17.7 27.4 0.00 0.00 0.00 32 1009.5
20190223042804 16 266 17.7 27.4 0.00 0.00 0.00 31 1009.5
20190223042304 16 269 19.3 32.2 0.00 0.00 0.00 34 1009.6
20190223041804 16 261 16.1 25.7 0.00 0.00 0.00 33 1009.6
20190223041304 16 234 16.1 24.1 0.00 0.00 0.00 36 1009.6
20190223040804 16 232 12.9 24.1 0.00 0.00 0.00 36 1009.8
20190223040304 16 268 14.5 27.4 0.00 0.00 0.00 38 1009.9
20190223035804 16 256 17.7 29.0 0.00 0.00 0.00 38 1010.0
20190223035304 16 243 20.9 32.2 0.00 0.00 0.00 40 1010.2
20190223034804 16 252 19.3 33.8 0.00 0.00 0.00 39 1010.3
20190223034304 15 244 16.1 29.0 0.00 0.00 0.00 42 1010.3
20190223033804 15 244 17.7 32.2 0.00 0.00 0.00 42 1010.4
20190223033304 15 239 17.7 27.4 0.00 0.00 0.00 43 1010.3
20190223032804 15 259 19.3 27.4 0.00 0.00 0.00 43 1010.4
20190223032304 15 250 20.9 29.0 0.00 0.00 0.00 44 1010.5
20190223031805 15 263 20.9 32.2 0.00 0.00 0.00 46 1010.5
20190223031304 15 299 17.7 27.4 0.00 0.00 0.00 46 1010.5
20190223030804 15 287 14.5 19.3 0.00 0.00 0.00 47 1010.7
20190223030304 15 279 14.5 19.3 0.00 0.00 0.00 47 1010.7
20190223025804 15 239 16.1 24.1 0.00 0.00 0.00 47 1010.7
20190223025303 15 242 14.5 24.1 0.00 0.00 0.00 47 1010.7
20190223024804 15 263 9.7 20.9 0.00 0.00 0.00 48 1010.8
20190223024304 15 286 9.7 19.3 0.00 0.00 0.00 41 1010.8
20190223023804 15 285 9.7 19.3 0.00 0.00 0.00 43 1010.7
20190223023304 15 267 9.7 16.1 0.00 0.00 0.00 40 1010.8
20190223022804 15 332 4.8 12.9 0.00 0.00 0.00 38 1010.8
20190223022303 15 332 4.8 16.1 0.00 0.00 0.00 38 1010.9
20190223021804 15 299 8.0 16.1 0.00 0.00 0.00 39 1010.9
20190223021304 15 273 14.5 22.5 0.00 0.00 0.00 40 1010.9
20190223020805 14 274 11.3 16.1 0.00 0.00 0.00 40 1010.9
20190223020304 14 333 9.7 20.9 0.00 0.00 0.00 40 1010.8
20190223015804 14 294 8.0 16.1 0.00 0.00 0.00 40 1010.7
20190223015304 14 6 6.4 16.1 0.00 0.00 0.00 41 1010.6
20190223014804 14 352 9.7 16.1 0.00 0.00 0.00 42 1010.6
20190223014304 13 297 9.7 16.1 0.00 0.00 0.00 43 1010.6
20190223013804 13 320 11.3 19.3 0.00 0.00 0.00 44 1010.7
20190223013304 13 312 12.9 20.9 0.00 0.00 0.00 44 1010.7
20190223012804 13 314 12.9 20.9 0.00 0.00 0.00 47 1010.6
20190223012304 13 343 8.0 20.9 0.00 0.00 0.00 47 1010.7
20190223011803 13 292 9.7 19.3 0.00 0.00 0.00 48 1010.7
20190223011304 13 282 9.7 14.5 0.00 0.00 0.00 50 1010.8
20190223010804 13 298 12.9 19.3 0.00 0.00 0.00 48 1010.8
20190223010304 13 275 9.7 16.1 0.00 0.00 0.00 50 1010.7
20190223005805 12 296 8.0 14.5 0.00 0.00 0.00 52 1010.6
20190223005304 12 327 9.7 14.5 0.00 0.00 0.00 50 1010.6
20190223004804 12 304 8.0 16.1 0.00 0.00 0.00 51 1010.6
20190223004304 12 303 8.0 14.5 0.00 0.00 0.00 51 1010.6
20190223003804 12 283 6.4 11.3 0.00 0.00 0.00 52 1010.5
20190223003304 12 325 8.0 14.5 0.00 0.00 0.00 52 1010.5
20190223002804 12 279 8.0 12.9 0.00 0.00 0.00 52 1010.6
20190223002304 11 326 6.4 12.9 0.00 0.00 0.00 53 1010.7
20190223001806 11 316 6.4 14.5 0.00 0.00 0.00 53 1010.7
20190223001304 11 312 8.0 16.1 0.00 0.00 0.00 54 1010.7
20190223000804 11 308 9.7 19.3 0.00 0.00 0.00 55 1010.8
20190223000304 11 316 8.0 14.5 0.00 0.00 0.00 57 1010.7
20190222235804 11 330 9.7 19.3 0.00 0.00 0.00 58 1010.6
20190222235304 11 320 6.4 12.9 0.00 0.00 0.00 61 1010.5
20190222234804 10 297 11.3 19.3 0.00 0.00 0.00 61 1010.5
20190222234303 10 286 8.0 14.5 0.00 0.00 0.00 66 1010.5
20190222233803 10 303 9.7 14.5 0.00 0.00 0.00 67 1010.4
20190222233304 10 282 8.0 12.9 0.00 0.00 0.00 69 1010.4
20190222232804 10 292 4.8 11.3 0.00 0.00 0.00 72 1010.3
20190222232304 10 297 4.8 14.5 0.00 0.00 0.00 71 1010.3
20190222231804 10 293 9.7 14.5 0.00 0.00 0.00 70 1010.3
20190222231304 10 299 9.7 14.5 0.00 0.00 0.00 68 1010.3
20190222230804 9 289 4.8 11.3 0.00 0.00 0.00 72 1010.3
20190222230304 9 295 4.8 11.3 0.00 0.00 0.00 73 1010.1
20190222225804 9 296 6.4 12.9 0.00 0.00 0.00 73 1010.0
20190222225303 9 297 4.8 8.0 0.00 0.00 0.00 75 1009.8
20190222224804 8 296 6.4 11.3 0.00 0.00 0.00 76 1009.8
20190222224305 8 289 4.8 8.0 0.00 0.00 0.00 77 1009.7
20190222223804 8 292 4.8 8.0 0.00 0.00 0.00 77 1009.7
20190222223304 8 295 3.2 8.0 0.00 0.00 0.00 77 1009.6
20190222222804 8 294 3.2 4.8 0.00 0.00 0.00 76 1009.4
20190222222304 8 295 3.2 8.0 0.00 0.00 0.00 76 1009.3
20190222221804 8 298 4.8 4.8 0.00 0.00 0.00 76 1009.4
20190222221304 8 303 4.8 8.0 0.00 0.00 0.00 76 1009.4
20190222220804 8 305 3.2 4.8 0.00 0.00 0.00 76 1009.2
20190222220304 8 305 3.2 4.8 0.00 0.00 0.00 76 1009.1
20190222215804 8 305 3.2 4.8 0.00 0.00 0.00 76 1009.0
20190222215304 8 305 3.2 4.8 0.00 0.00 0.00 75 1009.0
20190222214805 8 305 3.2 4.8 0.00 0.00 0.00 75 1009.1
20190222214306 8 305 3.2 4.8 0.00 0.00 0.00 75 1009.3
20190222213804 8 305 1.6 8.0 0.00 0.00 0.00 75 1009.4
20190222213304 8 306 4.8 8.0 0.00 0.00 0.00 75 1009.4
20190222212805 8 305 3.2 4.8 0.00 0.00 0.00 75 1009.3
20190222212304 9 305 3.2 4.8 0.00 0.00 0.00 74 1009.2
20190222211803 9 305 3.2 4.8 0.00 0.00 0.00 74 1009.1
20190222211304 9 305 4.8 8.0 0.00 0.00 0.00 74 1009.3
20190222210804 8 301 4.8 8.0 0.00 0.00 0.00 75 1009.4
20190222210304 8 289 4.8 8.0 0.00 0.00 0.00 77 1009.4
20190222205804 8 270 3.2 9.7 0.00 0.00 0.00 77 1009.4
20190222205303 8 335 4.8 4.8 0.00 0.00 0.00 77 1009.2
20190222204804 8 336 3.2 4.8 0.00 0.00 0.00 78 1009.2
20190222204304 8 337 3.2 4.8 0.00 0.00 0.00 78 1009.0
20190222203804 8 336 1.6 3.2 0.00 0.00 0.00 78 1008.9
20190222203304 8 337 1.6 4.8 0.00 0.00 0.00 78 1009.0
20190222202804 8 337 3.2 4.8 0.00 0.00 0.00 78 1008.9
20190222202304 8 336 3.2 4.8 0.00 0.00 0.00 78 1008.8
20190222201804 8 337 3.2 4.8 0.00 0.00 0.00 77 1008.5
20190222201306 8 337 3.2 4.8 0.00 0.00 0.00 78 1008.6
20190222200804 8 338 3.2 4.8 0.00 0.00 0.00 79 1008.6
20190222200304 8 336 1.6 4.8 0.00 0.00 0.00 80 1008.7
20190222195804 8 336 1.6 3.2 0.00 0.00 0.00 81 1008.8
20190222195304 8 337 0.0 4.8 0.00 0.00 0.00 82 1009.1
20190222194804 8 336 1.6 4.8 0.00 0.00 0.00 83 1009.4
20190222194304 8 335 3.2 4.8 0.00 0.00 0.00 83 1009.5
20190222193804 8 337 3.2 4.8 0.00 0.00 0.00 83 1009.5
20190222193304 8 336 3.2 4.8 0.00 0.00 0.00 83 1009.2
20190222192804 8 336 1.6 3.2 0.00 0.00 0.00 82 1009.1
20190222192304 8 336 0.0 3.2 0.00 0.00 0.00 82 1008.6
20190222191804 8 335 0.0 3.2 0.00 0.00 0.00 82 1008.3
20190222191306 8 339 1.6 3.2 0.00 0.00 0.00 82 1008.2
20190222190804 8 336 1.6 4.8 0.00 0.00 0.00 82 1008.3
20190222190304 8 335 1.6 3.2 0.00 0.00 0.00 82 1008.4
20190222185804 8 335 0.0 1.6 0.00 0.00 0.00 81 1008.4
20190222185304 8 335 0.0 3.2 0.00 0.00 0.00 81 1008.4
20190222184804 8 336 3.2 4.8 0.00 0.00 0.00 81 1008.3
20190222184304 8 337 1.6 4.8 0.00 0.00 0.00 81 1008.3
20190222183804 8 336 1.6 4.8 0.00 0.00 0.00 81 1008.3
20190222183304 8 335 1.6 4.8 0.00 0.00 0.00 81 1008.4
20190222182804 9 333 1.6 4.8 0.00 0.00 0.00 81 1008.6
20190222182305 9 323 1.6 4.8 0.00 0.00 0.00 81 1008.7
20190222181804 9 322 1.6 4.8 0.00 0.00 0.00 81 1008.8
20190222181304 9 319 3.2 4.8 0.00 0.00 0.00 80 1009.1
20190222180804 9 319 3.2 4.8 0.00 0.00 0.00 80 1009.4
20190222180304 9 319 1.6 4.8 0.00 0.00 0.00 81 1009.2
20190222175804 9 318 3.2 4.8 0.00 0.00 0.00 80 1009.1
20190222175304 9 315 1.6 4.8 0.00 0.00 0.00 80 1009.1
20190222174804 9 307 1.6 3.2 0.00 0.00 0.00 80 1009.4
20190222174304 9 307 1.6 3.2 0.00 0.00 0.00 80 1009.9
20190222173804 9 307 1.6 3.2 0.00 0.00 0.00 80 1010.2